Regional Weather Roundup
Issued by NWS Kansas City/Pleasant Hill, MO

Home | Current Version | Previous Version | Graphics & Text | Print | Product List | Glossary Off
Versions: 1 2 3 4 5 6 7 8 9 10 11 12 13 14 15 16 17 18 19 20 21 22 23 24 25 26 27 28 29 30 31 32 33 34 35 36 37 38 39 40 41 42 43 44 45 46 47 48 49 50

000
ASUS43 KEAX 161010
RWREAX

WEATHER ROUNDUP FOR EASTERN KANSAS AND NORTHWEST MISSOURI
NATIONAL WEATHER SERVICE KANSAS CITY/PLEASANT HILL MO
500 AM CDT TUE SEP 16 2014

KSZ040-057-103>105-MOZ028-029-037-043-161100-
...KANSAS CITY METROPOLITAN AREA...

CITY           SKY/WX    TMP DP  RH WIND       PRES   REMARKS
K.C. INTL      CLEAR     47  46  97 NE5       30.25S
K.C. DOWNTOWN  CLEAR     51  48  89 NE3       30.24F
LEES SUMMIT    CLEAR     48  47  96 N7        30.25S
OLATHE - IXD   CLEAR     48  47  96 N5        30.24F
OLATHE - OJC   CLEAR     49  48  97 N6        30.23F
LAWRENCE       CLEAR     45  43  93 CALM      30.25F

$$

MOZ001>008-011>017-020>025-030>033-038>040-044>046-053-054-161100-
...NORTHERN AND CENTRAL MISSOURI...

CITY           SKY/WX    TMP DP  RH WIND       PRES   REMARKS
ST. JOSEPH     FOG       41  41 100 CALM      30.26S VSB 3/4
MOSBY          CLOUDY    45  45 100 CALM      30.25F
WHITEMAN AFB   CLOUDY    55  51  88 N7        30.22F
CLINTON        CLOUDY    57  54  88 CALM      30.22F
SEDALIA        CLOUDY    57  52  83 NE7       30.23S
WARSAW         NOT AVBL
MARSHALL       PTCLDY    54  52  94 N5        30.24S
CHILLICOTHE      N/A     47  45  93 N3        30.27S
MOBERLY        CLEAR     48  45  87 N6        30.25S
KIRKSVILLE     CLEAR     46  45  96 N3        30.25S FOG

$$

MOZ041-047>049-056>058-063>065-088>090-097-161100-
...EASTERN AND SOUTHERN MISSOURI...

CITY           SKY/WX    TMP DP  RH WIND       PRES   REMARKS
ST. LOUIS INTL CLOUDY    59  55  87 NE8       30.21R
SPIRIT OF STL  CLOUDY    58  56  93 N7        30.20R
COLUMBIA       CLOUDY    56  51  84 NE8       30.22S
JEFFERSON CITY CLOUDY    59  53  80 CALM      30.21F
MEXICO         MOCLDY   N/A N/A N/A N5        30.23S
HANNIBAL       CLEAR     50  48  93 CALM      30.24S
ROLLA          CLOUDY    57  55  93 NE9       30.19R FOG
LEBANON        CLOUDY    63  57  82 NE6       30.20
OSAGE BEACH    CLOUDY    57  55  94 NE5       30.20S
SPRINGFIELD    CLOUDY    64  58  80 NE7       30.17F
BRANSON        CLOUDY    66  64  94 N6        30.17S
NEVADA         CLOUDY    57  54  88 N7        30.22S
JOPLIN         CLOUDY    60  59  96 N6        30.18F FOG
WEST PLAINS    CLOUDY    63  59  87 N8        30.18S

$$

IAZ060-094-KSZ022-034>040-054-083-096-NEZ052-066-093-161100-
...KANSAS...SOUTHEAST NEBRASKA AND IOWA...

CITY           SKY/WX    TMP DP  RH WIND       PRES   REMARKS
TOPEKA         CLEAR     48  47  96 CALM      30.26S
MANHATTAN      CLEAR     48  46  93 N3        30.25F
EMPORIA        CLEAR     50  49  96 NE6       30.23F
CHANUTE        CLOUDY    59  50  72 NE7       30.21S
WICHITA        CLOUDY    61  50  67 NE9       30.20F
OMAHA          FOG       44  43  96 CALM      30.27S VSB 1/4
LINCOLN        CLEAR     42  40  92 CALM      30.26F
FALLS CITY     CLEAR     42  41  96 CALM      30.26S
LAMONI         CLEAR     46  43  89 N3        30.26S
DES MOINES     CLEAR     47  43  86 CALM      30.26S

$$




USA.gov is the U.S. government's official web portal to all federal, state and local government web resources and services.